Simultaneous Nadir Overpasses (SNOs) Predictions

Prediction of SNOs between LANDSAT-8 and NOAA-19 Satellite Orbit:

Table of predicted SNOs for the next 14.0 days since TLE Epoch: 6/16/2022
Index Date (LANDSAT-8) Time (LANDSAT-8) Lat,Lon (LANDSAT-8) SZA (LANDSAT-8 ) Date (NOAA-19) Time (NOAA-19) Lat,Lon (NOAA-19) SZA (NOAA-19 ) Distance(km) Time Diff (sec)
1 06/17/2022 13:54:59 80.79, 6.78 59.18 06/17/2022 13:53:50 80.80, 6.82 59.17 1.78 69
2 06/17/2022 14:44:26 -80.79, 174.37 120.84 06/17/2022 14:44:44 -80.80, 174.28 120.83 2.21 18
3 06/19/2022 20:18:10 80.80, -88.86 59.15 06/19/2022 20:17:45 80.80, -88.92 59.13 1.01 25
4 06/19/2022 21:07:37 -80.80, 78.75 120.86 06/19/2022 21:08:38 -80.79, 78.89 120.83 2.94 61
5 06/22/2022 02:41:21 80.81, 175.43 59.14 06/22/2022 02:41:40 80.80, 175.28 59.13 2.92 19
6 06/24/2022 08:15:06 -80.81, -88.02 120.85 06/24/2022 08:14:30 -80.80, -87.92 120.86 2.12 36
7 06/24/2022 09:04:33 80.78, 79.30 59.11 06/24/2022 09:05:35 80.80, 79.41 59.16 2.58 62
8 06/26/2022 14:38:17 -80.80, 176.14 120.80 06/26/2022 14:38:25 -80.80, 176.22 120.79 1.52 8
9 06/28/2022 20:12:01 80.79, -87.47 59.26 06/28/2022 20:11:26 80.81, -87.35 59.27 2.91 35



Historial Predications of SNOs between LANDSAT-8 and NOAA-19
